Weather History for KPNS - August, 2013

Change the Weather History Date:

Wednesday, August 7, 2013

  Actual Average Record
Temperature  
Mean Temperature 84 °F 82 °F  
Max Temperature 92 °F 90 °F 101 °F (1956)
Min Temperature 76 °F 74 °F 66 °F (1984)
Cooling Degree Days 19 17  
Month to date cooling degree days 135 119  
Year to date cooling degree days 1592 1565  
Since 1 June cooling degree days 1150 1117  
Growing Degree Days 33 (Base 50)    
Moisture  
Dew Point 74 °F    
Average Humidity 75    
Maximum Humidity 94    
Minimum Humidity 56    
Precipitation  
Precipitation 0.00 in 0.24 in 2.42 in (1894)
Month to date precipitation 1.49 1.71  
Year to date precipitation 47.93 39.72  
Sea Level Pressure  
Sea Level Pressure 29.96 in    
Wind  
Wind Speed 5 mph (East)    
Max Wind Speed 12 mph    
Max Gust Speed 15 mph    
Visibility 10 miles    
Events      
T = Trace of Precipitation, MM = Missing Value Source: NWS Daily Summary

Daily Weather History Graph

Daily Weather History Graph

Search for Another Location

Airport or City:

Trip Planner

Search our weather history database for the weather conditions in past years. The results will help you decide how hot, cold, wet, or windy it might be!

Date:

Astronomy

Aug. 07, 2013 Rise Set
Actual Time 6:10 AM CDT 7:37 PM CDT
Civil Twilight 5:45 AM CDT 8:03 PM CDT
Nautical Twilight 5:14 AM CDT 8:34 PM CDT
Astronomical Twilight 4:42 AM CDT 9:06 PM CDT
Moon 6:51 AM CDT (8/7) 7:54 PM CDT (8/7)
Length of Visible Light 14h 18m
Length of Day
13h 26m
New Moon, 1% of the Moon is Illuminated
Aug 7
New Moon
Aug 14
First Quarter
Aug 20
Full
Aug 28
Last Quarter
Sep 5
New

Hourly Weather History & Observations

Time (CDT) Temp. Heat Index Dew Point Humidity Pressure Visibility Wind Dir Wind Speed Gust Speed Precip Events Conditions
12:53 AM 78.1 °F - 73.0 °F 84% 29.94 in 10.0 mi NW 6.9 mph - N/A   Clear
1:53 AM 75.9 °F - 73.0 °F 91% 29.92 in 10.0 mi North 3.5 mph - N/A   Clear
2:53 AM 75.9 °F - 73.0 °F 91% 29.94 in 9.0 mi North 4.6 mph - N/A   Clear
3:53 AM 75.9 °F - 72.0 °F 87% 29.94 in 10.0 mi NNE 3.5 mph - N/A   Clear
4:53 AM 75.9 °F - 73.0 °F 91% 29.95 in 10.0 mi North 3.5 mph - N/A   Clear
5:53 AM 75.9 °F - 73.0 °F 91% 29.95 in 10.0 mi NNE 4.6 mph - N/A   Clear
6:53 AM 77.0 °F - 72.0 °F 84% 29.97 in 10.0 mi Calm Calm - N/A   Clear
7:53 AM 80.1 °F 83.2 °F 70.0 °F 71% 29.98 in 10.0 mi NE 4.6 mph - N/A   Clear
8:53 AM 82.9 °F 88.0 °F 72.0 °F 69% 29.99 in 10.0 mi NE 4.6 mph - N/A   Clear
9:53 AM 84.9 °F 90.7 °F 72.0 °F 65% 29.99 in 10.0 mi East 5.8 mph - N/A   Clear
10:53 AM 87.1 °F 95.4 °F 73.9 °F 65% 30.00 in 10.0 mi ESE 4.6 mph - N/A   Clear
11:53 AM 88.0 °F 96.5 °F 73.9 °F 63% 30.00 in 10.0 mi ESE 6.9 mph - N/A   Clear
12:53 PM 90.0 °F 99.0 °F 73.9 °F 59% 29.99 in 10.0 mi Variable 5.8 mph - N/A   Clear
1:53 PM 91.9 °F 101.3 °F 73.9 °F 55% 29.96 in 10.0 mi East 4.6 mph - N/A   Clear
2:53 PM 91.0 °F 102.9 °F 75.9 °F 61% 29.95 in 10.0 mi SSE 9.2 mph - N/A   Clear
3:53 PM 90.0 °F 101.3 °F 75.9 °F 63% 29.93 in 10.0 mi SSE 9.2 mph - N/A   Clear
4:53 PM 90.0 °F 99.0 °F 73.9 °F 59% 29.93 in 10.0 mi SE 8.1 mph - N/A   Clear
5:53 PM 89.1 °F 97.0 °F 73.0 °F 59% 29.92 in 10.0 mi SE 6.9 mph - N/A   Clear
6:53 PM 86.0 °F 96.0 °F 75.9 °F 72% 29.92 in 10.0 mi SE 5.8 mph - N/A   Clear
7:53 PM 84.0 °F 92.6 °F 75.9 °F 76% 29.94 in 10.0 mi SE 6.9 mph - N/A   Partly Cloudy
8:53 PM 84.0 °F 94.8 °F 78.1 °F 82% 29.96 in 10.0 mi SE 6.9 mph - N/A   Partly Cloudy
9:53 PM 84.0 °F 94.8 °F 78.1 °F 82% 29.96 in 10.0 mi SE 8.1 mph - N/A   Partly Cloudy
10:53 PM 82.9 °F 92.8 °F 78.1 °F 85% 29.97 in 10.0 mi ESE 4.6 mph - N/A   Partly Cloudy
11:49 PM 84.2 °F 96.1 °F 78.8 °F 84% 29.97 in 10.0 mi Calm Calm - N/A   Mostly Cloudy
11:53 PM 84.0 °F 94.8 °F 78.1 °F 82% 29.97 in 10.0 mi Calm Calm - N/A   Mostly Cloudy